Location: Vlissingen
(51.4500°N, 3.5830°E)
Time: 01:30:18
(UTC+02:00)

Daily predictions for brighter satellites

Satellite Brightness Start Highest point End
(mag) Time Altitude Azimuth Time Altitude Azimuth Time Altitude Azimuth
Meteor 1-22 Rocket 4.1 00:06:15 70° SE 00:06:34 71° E 00:12:09 10° NNE
Cosmos 1538 Rocket 3.9 00:07:08 74° E 00:07:08 74° E 00:12:24 10° NNE
Cosmos 1766 Rocket 3.9 00:02:49 10° N 00:06:44 62° NNE 00:06:44 62° NNE
CZ-4 R/B 4.4 00:04:08 10° N 00:08:45 53° WNW 00:09:54 42° WSW
Cosmos 2360 Rocket 2.1 00:09:11 69° ESE 00:09:11 69° ESE 00:14:44 10° NNE
Cosmos 1980 Rocket 4.0 00:04:15 10° WSW 00:09:14 30° NW 00:14:16 10° NNE
IGS 5A 4.3 00:09:57 44° W 00:09:57 44° W 00:13:40 10° NNW
Cosmos 1812 Rocket 4.3 00:09:48 44° W 00:10:13 45° WNW 00:14:25 10° N
Cosmos 2056 Rocket 4.5 00:06:30 10° NNW 00:11:24 36° NE 00:12:02 35° ENE
ATLAS CENTAUR R/B 4.2 00:12:34 10° NNW 00:15:45 17° N 00:18:48 10° NE
Cosmos 1371 Rocket 4.5 00:12:58 10° NNW 00:18:02 49° ENE 00:18:10 49° ENE
In-Cosmos 22 4.0 00:13:59 10° NNW 00:19:31 82° ENE 00:19:43 80° ESE
Cosmos 1464 Rocket 4.0 00:18:32 56° SSW 00:19:59 80° W 00:26:23 10° N
Cosmos 1513 Rocket 4.4 00:20:20 67° S 00:21:15 89° E 00:27:36 10° N
Cosmos 773 Rocket 4.4 00:22:23 53° ENE 00:22:23 53° ENE 00:26:43 10° NNE
CZ-4B R/B 3.9 00:23:00 18° NE 00:23:00 18° NE 00:24:37 10° NNE
ATLAS CENTAUR R/B 4.4 00:19:35 44° SSE 00:22:38 54° ESE 00:47:20 10° NE
Nadezhda 4 Rocket 3.9 00:21:20 10° N 00:27:42 89° W 00:28:28 71° S
GEOS 3 Rocket 3.7 00:23:01 10° NE 00:27:21 62° ENE 00:27:21 62° ENE
Cosmos 2219 Rocket 3.7 00:30:26 24° ENE 00:30:26 24° ENE 00:33:18 10° NE
Cosmos 2263 Rocket 3.7 00:24:21 10° NW 00:28:39 23° WSW 00:29:28 22° WSW
Cosmos 2322 Rocket 3.6 00:37:52 10° WSW 00:43:01 36° NW 00:48:13 10° NNE
Cosmos 1624 Rocket 4.2 00:39:12 10° NNW 00:44:15 63° NE 00:44:15 63° NE
Meteor 2-12 Rocket 4.3 00:46:31 78° SSW 00:46:57 86° W 00:53:10 10° N
SL-16 R/B 4.5 00:50:27 12° ENE 00:50:27 12° ENE 00:51:20 10° ENE
Cosmos 2322 3.8 00:48:25 64° W 00:49:04 70° WNW 00:54:48 10° NNE
Cosmos 2237 Rocket 3.7 00:52:26 24° ENE 00:52:26 24° ENE 00:55:29 10° NE
Cosmos 2297 4.3 00:46:24 10° NNW 00:51:57 47° NE 00:52:35 45° ENE
Cosmos 2026 Rocket 4.0 00:47:37 10° N 00:53:44 65° ENE 00:53:56 64° E
Cosmos 2333 Rocket 3.4 00:57:37 30° ENE 00:57:37 30° ENE 01:01:15 10° NE
Cosmos-2242 4.2 01:00:00 41° N 01:00:00 41° N 01:02:52 10° N
Cosmos 2112 Rocket 4.4 01:08:48 58° NE 01:08:48 58° NE 01:13:08 10° NNE
ALOS 2 3.6 01:11:22 45° NNW 01:11:22 45° NNW 01:14:27 10° NNW
Cosmos 2195 Rocket 4.3 01:04:08 10° N 01:10:20 89° W 01:10:26 87° SSW
Cosmos 1452 Rocket 4.2 01:06:09 10° NNW 01:11:13 47° NE 01:11:13 47° NE
COSMOS 2428 2.7 01:12:50 78° N 01:12:50 78° N 01:18:14 10° NNE
Cosmos 304 Rocket 4.5 01:15:20 51° NNW 01:15:20 51° NNW 01:19:28 10° NNE
ATLAS 3B R/B 3.4 01:16:42 44° ESE 01:16:42 44° ESE 01:22:54 10° NE
CZ-2C R/B 3.7 01:20:53 44° NE 01:20:53 44° NE 01:25:17 10° N
Cosmos 2278 Rocket 2.4 01:15:28 10° NNW 01:20:24 62° WNW 01:20:24 62° WNW
Cosmos 1680 Rocket 3.8 01:23:02 67° N 01:23:02 67° N 01:27:47 10° NNE
Cosmos 2142 Rocket 4.3 01:23:30 88° SSE 01:23:33 89° E 01:29:55 10° N
Cosmos 2151 4.3 01:22:16 10° N 01:24:56 37° N 01:24:56 37° N
Cosmos 1953 4.1 01:30:27 29° NNW 01:30:27 29° NNW 01:32:57 10° N
Cosmos 2237 4.5 01:30:59 60° WNW 01:31:17 61° NW 01:37:00 10° NNE
Lacrosse 4 Rocket 2.8 01:35:34 38° NNW 01:35:34 38° NNW 01:39:19 10° NNE
Cosmos 1655 Rocket 4.0 01:29:42 10° NNW 01:36:03 74° W 01:36:05 74° W
COSMOS 2455 3.2 01:38:03 55° ENE 01:38:03 55° ENE 01:43:05 10° NE
CZ-2C R/B 3.3 01:32:33 10° NNE 01:37:17 49° ENE 01:37:17 49° ENE
Cosmos 1844 Rocket 4.2 01:35:45 10° NW 01:39:14 25° W 01:39:14 25° W
SL-16 R/B 4.5 01:37:29 10° W 01:41:39 20° NNW 01:45:51 10° NNE
Cosmos 1818 4.4 01:46:41 10° NW 01:50:30 43° WNW 01:50:30 43° WNW
Timation 1 Rocket 4.3 01:46:44 10° NNW 01:52:36 80° NNE 01:52:36 80° NNE
Cosmos 2360 Rocket 3.8 01:50:55 21° W 01:53:35 30° NW 01:58:32 10° NNE
CZ-4B R/B 4.2 01:56:44 17° NW 01:56:44 17° NW 01:57:47 10° NNW
ATLAS CENTAUR R/B 2.9 01:51:49 10° NNW 01:55:56 36° NNE 01:55:56 36° NNE
Cosmos 1634 Rocket 4.4 01:58:03 52° W 01:58:34 53° WNW 02:04:45 10° N
Cosmos 2369 Rocket 3.7 01:57:17 10° NNW 02:02:15 31° NE 02:05:21 19° E
Cosmos 1420 Rocket 4.3 01:57:02 10° NNW 02:01:44 62° NNE 02:01:44 62° NNE
Cosmos 2219 Rocket 2.5 02:12:08 59° WNW 02:12:10 59° NW 02:17:46 10° NNE
Cosmos 2279 Rocket 4.0 02:12:31 66° W 02:12:40 66° WNW 02:18:51 10° N
Cosmos 1943 Rocket 4.4 02:10:03 10° NNW 02:14:27 22° NE 02:18:49 10° E
USA 238 DEB 4.1 02:16:38 50° ESE 02:16:38 50° ESE 02:23:12 10° NE
USA 238 4.1 02:16:45 49° ESE 02:16:45 49° ESE 02:23:18 10° NE
H-2A R/B 4.1 02:19:17 10° N 02:21:50 30° NNW 02:21:50 30° NNW
CZ-4C R/B 3.1 02:25:26 39° E 02:25:26 39° E 02:30:11 10° NE
Cosmos 2266 Rocket 3.9 02:22:37 10° NNW 02:29:01 74° W 02:29:08 73° WSW
SL-16 R/B 2.3 02:32:20 67° E 02:32:20 67° E 02:37:35 10° NNE
Cosmos 2237 Rocket 2.4 02:34:14 60° WNW 02:34:24 61° NW 02:40:04 10° NNE
Cosmos 2228 Rocket 3.9 02:35:33 50° NNE 02:35:33 50° NNE 02:39:02 10° NNE
NOSS 3-3 (A) 4.3 02:30:08 10° NW 02:37:26 89° NE 02:40:11 45° SE
NOSS 3-3 (C) 4.3 02:30:14 10° NW 02:37:32 89° NE 02:40:21 44° SE
Cosmos 1633 Rocket 4.4 02:34:59 10° NNW 02:37:41 33° NW 02:37:41 33° NW
Cosmos 2221 3.8 02:40:44 35° NNW 02:40:44 35° NNW 02:43:48 10° N
Cosmos 1980 4.1 02:39:36 52° WNW 02:39:58 52° NW 02:45:31 10° NNE
Cosmos 2333 Rocket 2.7 02:39:36 49° WNW 02:40:10 51° NW 02:45:50 10° NNE
Cosmos 1626 4.2 02:37:56 10° NNW 02:39:39 26° NNW 02:39:39 26° NNW
Helios 1A Rocket 4.4 02:38:21 10° N 02:40:57 33° NNW 02:40:57 33° NNW
Cosmos 1607 3.8 02:46:49 71° SE 02:46:49 71° SE 02:52:57 10° NE
SL-16 R/B 4.3 02:42:08 10° ESE 02:47:09 27° NE 02:52:14 10° N
NOSS 0 Rocket 4.5 02:47:54 44° W 02:49:03 50° NW 02:55:05 10° NNE
Cosmos 1933 Rocket 4.5 02:46:20 10° NNW 02:49:26 45° NNW 02:49:26 45° NNW
Cosmos 1269 Rocket 4.1 02:57:06 67° E 02:57:06 67° E 03:02:05 10° NNE
CZ-2C R/B 4.5 03:01:58 25° WNW 03:01:58 25° WNW 03:04:54 10° NNW
Cosmos 468 4.5 03:02:37 83° N 03:02:37 83° N 03:07:44 10° NNE
Cosmos 1437 Rocket 4.3 03:04:06 33° NNW 03:04:06 33° NNW 03:06:52 10° N
Cosmos 1867 3.5 03:03:50 84° E 03:03:50 84° E 03:09:14 10° NE
Cosmos 2278 Rocket 4.5 03:01:47 10° WNW 03:02:13 11° WNW 03:02:13 11° WNW
Cosmos 1271 Rocket 4.4 03:06:38 30° ENE 03:06:38 30° ENE 03:09:38 10° NNE
ATLAS 3B R/B 3.1 03:03:55 41° WSW 03:06:36 64° NW 03:13:51 10° NE
CZ-2D R/B 4.5 03:09:38 10° NE 03:12:36 15° E 03:15:31 10° ESE
Cosmos 1151 Rocket 3.5 03:13:35 59° NE 03:13:35 59° NE 03:17:19 10° NNE
Cosmos 1603 3.8 03:14:37 61° SE 03:15:00 62° ESE 03:20:41 10° NE
Lacrosse 4 Rocket 4.3 03:12:43 10° NW 03:15:02 14° NNW 03:17:20 10° N
CZ-2C R/B 3.8 03:13:13 10° N 03:18:03 32° WNW 03:18:48 31° WNW
Cosmos 1356 Rocket 4.1 03:16:13 10° N 03:19:42 49° NE 03:19:42 49° NE
Cosmos 1110 Rocket 3.8 03:15:45 10° NNW 03:21:00 88° WSW 03:21:02 88° SW
COSMOS 2455 3.9 03:21:12 29° W 03:23:25 38° NW 03:29:02 10° NNE
Meteor 2-2 Rocket 4.2 03:32:44 65° SW 03:33:34 76° WNW 03:39:28 10° N
Cosmos 1908 4.4 03:35:06 37° NNW 03:35:06 37° NNW 03:37:52 10° N
Cosmos 1340 Rocket 3.8 03:30:05 10° NNW 03:32:50 42° NNW 03:32:50 42° NNW
ATLAS CENTAUR R/B 3.6 03:31:03 10° NW 03:32:12 17° NW 03:32:12 17° NW
CBERS-1 4.3 03:30:39 10° NNE 03:35:42 57° E 03:36:33 50° SE
Cosmos 2251 Rocket 4.0 03:35:17 45° SE 03:36:03 49° ESE 03:41:07 10° NNE
Resurs 1-4 Rocket 3.9 03:33:28 10° NE 03:37:42 24° E 03:40:40 15° SE
NPP 3.8 03:32:32 10° NNE 03:37:56 68° ESE 03:38:57 55° SSE
Cosmos 1943 3.8 03:40:45 40° SSE 03:42:00 47° ESE 03:47:25 10° NE
Meteor 2-3 Rocket 3.7 03:39:39 10° NNW 03:45:28 86° ENE 03:47:19 46° SSE
PSLV R/B 4.1 03:41:30 10° N 03:46:10 54° WNW 03:46:16 54° WNW
Cosmos 1726 2.7 03:46:55 56° NE 03:46:55 56° NE 03:50:06 10° NNE
Cosmos 2369 Rocket 2.1 03:41:09 10° NW 03:46:42 64° WSW 03:47:04 63° SW
Cosmos 1892 3.3 03:47:25 10° N 03:51:13 52° ENE 03:51:30 50° E
Cosmos 494 Rocket 4.5 03:52:22 42° SSE 03:53:38 53° ESE 03:58:45 10° NNE
SL-08 R/B 3.5 03:55:40 51° W 03:55:40 51° W 03:59:54 10° NNW
Cosmos 2219 Rocket 4.3 03:53:50 11° WNW 03:57:22 18° NNW 04:01:13 10° NNE
Cosmos 1943 Rocket 2.2 03:53:25 10° NNW 03:59:08 79° ENE 04:04:48 10° SE
Meteor 1-4 Rocket 3.5 04:01:40 39° NNW 04:01:40 39° NNW 04:04:14 10° N
UNK 4.1 04:02:51 30° SE 04:05:03 64° ENE 04:09:37 10° N
USA 238 DEB 4.1 04:04:04 31° W 04:07:27 57° NW 04:14:24 10° NE
USA 238 4.1 04:04:11 31° W 04:07:33 57° NW 04:14:30 10° NE
AQUA 3.7 04:04:01 10° NNE 04:08:49 80° WNW 04:09:40 60° SW
S3M 4.1 04:08:06 44° SW 04:09:55 61° WNW 04:16:14 10° N
Cosmos 1302 Rocket 3.9 04:05:51 10° NNW 04:11:05 66° WSW 04:12:21 49° S
Cosmos 1300 3.0 04:12:22 53° NW 04:12:22 53° NW 04:15:50 10° N
CZ-4C R/B 2.8 04:10:36 34° W 04:12:54 55° NW 04:19:13 10° NE
Cosmos 1869 Rocket 4.2 04:08:55 10° NNW 04:12:41 42° WNW 04:12:41 42° WNW
SL-16 R/B 3.5 04:14:12 22° W 04:16:32 29° NW 04:21:31 10° NNE
USA 161 4.2 04:20:13 10° NNW 04:20:13 10° NNW 04:20:14 10° NNW
Cosmos 2237 Rocket 4.3 04:16:03 11° WNW 04:19:42 19° NNW 04:23:39 10° NNE
NOSS 3-2 (A) 3.6 04:18:06 39° SW 04:20:40 79° NW 04:27:37 10° NE
SeaSat 1 3.3 04:18:54 10° SE 04:23:39 51° NE 04:28:27 10° NNW
Cosmos 1455 2.9 04:23:21 36° SSE 04:24:34 52° E 04:28:23 10° NNE
Cosmos 1656 Rocket 4.0 04:19:22 10° NNW 04:24:48 63° NE 04:30:10 10° SE
Cosmos 2333 Rocket 4.4 04:22:10 10° WNW 04:25:53 17° NNW 04:29:38 10° NNE
Cosmos 724 4.4 04:24:05 37° SSW 04:26:28 72° SE 04:32:33 10° NE
Cosmos 1408 4.4 04:23:13 10° N 04:26:39 32° ENE 04:30:03 10° SE
Cosmos 2263 4.5 04:21:34 10° NW 04:27:04 46° WSW 04:28:25 39° SW
IRS-1D 3.8 04:21:55 10° NNE 04:27:08 65° ESE 04:29:58 27° S
Cosmos 1553 Rocket 4.4 04:25:55 35° WSW 04:27:49 46° WNW 04:33:40 10° N
Spot 4 Rocket 4.0 04:22:48 10° NNE 04:28:01 90° ESE 04:30:06 38° SSW
Cosmos 1709 Rocket 3.9 04:21:53 10° NNW 04:28:15 73° W 04:32:01 26° S
CENTAUR R/B 3.5 04:25:39 21° S 04:29:16 39° ESE 04:35:38 10° NE
Meteor 2-10 4.1 04:26:43 33° S 04:29:16 81° E 04:34:37 10° NNE
SL-16 R/B 2.4 04:25:58 21° S 04:30:17 74° WSW 04:36:32 10° NNW
Cosmos 158 Rocket 4.4 04:29:18 37° W 04:30:37 45° WNW 04:35:23 10° NNE
Cosmos 1862 Rocket 4.4 04:28:26 23° SSE 04:30:49 48° E 04:35:07 10° NNE
ARIANE 5 R/B 2.7 04:25:55 10° NNE 04:31:11 74° ESE 04:33:52 29° S
IRS-1C 4.2 04:28:26 10° N 04:33:44 64° WNW 04:35:44 38° SW
ATLAS 5 CENTAUR R/B 2.3 04:34:18 35° S 04:36:13 57° SE 04:41:29 10° NE
Cosmos 2242 Rocket 3.6 04:37:25 42° SSW 04:38:55 76° WNW 04:43:31 10° N
NOSS 3-2 (C) 3.6 04:36:22 33° WSW 04:39:29 75° NW 04:46:29 10° NE
ERS-2 2.0 04:36:11 10° NNE 04:39:55 88° WNW 04:40:47 52° SSW
Cosmos 2292 Rocket 3.5 04:38:12 10° NNW 04:40:26 39° NW 04:40:26 39° NW
Cosmos 1271 Rocket 4.0 04:41:52 28° WNW 04:42:07 28° WNW 04:45:38 10° N
Cosmos 1184 Rocket 2.7 04:38:54 10° NNW 04:42:21 72° W 04:42:43 64° SSW
Cosmos 1733 Rocket 3.0 04:44:21 10° NNW 04:48:41 62° W 04:50:35 32° SSW
ADEOS 3.7 04:43:35 10° N 04:48:44 60° WNW 04:51:05 31° SW
Cosmos 2074 Rocket 4.1 04:45:26 10° N 04:51:42 82° E 04:57:57 10° SSE
Cosmos 1825 2.6 04:48:00 10° N 04:51:48 61° ENE 04:55:33 10° SSE
ERBS 3.6 04:50:35 24° WNW 04:52:10 37° NNW 04:55:30 10° ENE
CZ-2D R/B 2.1 04:48:10 10° NNE 04:53:30 87° E 04:56:56 22° SSW
ARGOS Delta rocket 4.4 04:51:06 10° NNE 04:55:24 49° E 04:59:29 11° S
Centaur D-1A AC-31 4.3 04:58:23 16° SSW 04:58:23 16° SSW 05:02:06 10° S
IRAS Rocket 4.4 04:52:02 10° NNE 04:57:34 58° WNW 05:00:34 27° SW
ATLAS 3B R/B 4.1 04:51:59 10° WNW 04:58:40 34° NNW 05:05:03 10° NE
Cosmos 2184 Rocket 4.1 04:52:31 10° N 04:58:57 87° E 05:05:20 10° S
Cosmos 1782 Rocket 4.3 04:55:44 10° N 05:00:00 53° ENE 05:04:15 10° SSE
Cosmos 1992 Rocket 3.9 04:57:46 10° NNW 05:03:00 72° WSW 05:08:12 10° SSE
CZ-2D R/B 3.9 04:59:51 10° NNE 05:04:15 65° ESE 05:07:47 15° S
Abrixas rocket 3.1 05:07:44 31° S 05:07:44 31° S 05:10:31 10° SE
Cosmos 389 Rocket 2.3 05:10:07 27° SSW 05:11:53 83° W 05:15:27 10° NNE
CZ-2C R/B 3.6 05:13:12 10° SSE 05:17:39 85° WSW 05:22:07 10° NNW
Resurs 1-4 Rocket 2.2 05:12:45 10° N 05:17:58 61° WNW 05:21:45 19° SW
Cosmos 1908 Rocket 3.5 05:15:52 10° NNW 05:20:14 63° W 05:24:32 10° S
Thor Agena Rocket 3.9 05:15:11 10° SSE 05:20:20 71° ENE 05:25:35 10° NNW
Cosmos 1726 4.2 05:21:36 13° WNW 05:22:13 14° WNW 05:24:09 10° NNW
Cosmos 1943 4.0 05:22:35 19° WSW 05:26:12 39° NW 05:31:31 10° NNE
Cosmos 1892 4.5 05:24:15 10° NW 05:26:33 16° W 05:26:33 16° W
ADEOS II 4.0 05:22:28 10° NNE 05:27:03 29° E 05:31:36 10° SSE
USA 32 4.3 05:22:22 10° S 05:27:35 73° E 05:32:50 10° N
Cosmos 2369 Rocket 4.1 05:27:52 10° WNW 05:28:46 11° W 05:28:46 11° W
COSMOS 2487 4.1 05:28:51 10° S 05:32:07 33° ESE 05:35:24 10° NE
Cosmos 2285 Rocket 4.2 05:26:14 10° NNW 05:32:22 48° WSW 05:38:26 10° S
UNKNOWN OBJECT B 3.0 05:29:21 10° N 05:32:58 48° WNW 05:35:27 18° SW
Cosmos 2369 4.4 05:27:20 10° NNW 05:33:01 60° NE 05:38:42 10° SE
Okean O Rocket 1.7 05:30:15 10° NNE 05:34:45 81° ESE 05:39:13 10° SSW
EO 1 Del DPAF 4.3 05:33:15 19° SW 05:34:54 26° W 05:38:13 10° NW
COSMOS 2406 3.3 05:31:22 12° SSW 05:36:45 84° ESE 05:42:32 10° NNE
CZ-4B R/B 3.4 05:33:50 10° NNE 05:39:10 70° ESE 05:44:26 10° S
Cosmos 1862 3.8 05:35:27 10° NNW 05:39:10 39° W 05:42:52 10° SSW
USA 234 3.4 05:34:13 10° ENE 05:40:48 71° SE 05:46:49 13° SW
SL-27 R/B 2.7 05:38:44 18° SW 05:41:16 54° WNW 05:44:49 10° NNE
ASTRO F (AKARI) 4.3 05:37:54 10° SSE 05:41:23 83° WSW 05:44:43 10° NNW
Cosmos 2221 Rocket 3.6 05:37:32 10° S 05:41:58 90° E 05:46:25 10° N
Cosmos 1943 Rocket 3.4 05:38:08 10° NW 05:42:16 21° W 05:46:20 10° SSW
Cosmos 1703 Rocket 3.6 05:39:13 10° SSW 05:43:42 80° W 05:48:14 10° N
Okean-O 4.1 05:40:48 10° NNE 05:44:57 38° E 05:49:06 10° SSE
IRS-1C Rocket 4.1 05:43:05 10° NNE 05:48:24 81° WNW 05:53:40 10° SSW
Cosmos 1869 4.4 05:46:59 16° WSW 05:49:27 28° WNW 05:52:54 10° N
PSLV R/B 4.5 05:49:38 10° NNE 05:53:56 51° E 05:58:13 10° S
Aureole 3 Rocket 3.4 05:49:07 10° SSW 05:55:09 80° W 05:59:27 10° N
MOZ.5/SAFIR/RUBIN 5/SL-8 4.3 05:52:28 10° SSW 05:56:45 37° W 06:01:05 10° NNW
Cosmos 407 Rocket 3.8 05:52:40 10° SSW 05:57:53 71° ESE 06:03:12 10° NNE
Cosmos 2151 Rocket 3.7 05:55:30 10° N 05:59:55 80° ENE 06:04:19 10° SSE
Cosmos 1455 4.0 05:58:24 12° WSW 06:00:38 17° WNW 06:03:18 10° NNW
ADEOS Rocket 4.0 05:52:57 10° NNE 06:00:41 69° ESE 06:08:24 10° S
SeaSat 1 3.1 05:56:59 10° S 06:01:22 32° WSW 06:05:48 10° NW
Cosmos 1408 3.8 05:58:41 10° NW 06:01:43 23° W 06:04:44 10° SW
CZ-4C R/B 4.0 05:57:32 10° WNW 06:02:47 30° N 06:08:39 10° NE
Cosmos 1933 4.1 06:04:17 10° SW 06:08:04 35° WNW 06:11:52 10° N
ARIANE 5 R/B 4.0 06:05:51 10° N 06:09:49 22° WNW 06:13:45 10° WSW
Okean 1-7 3.1 06:06:20 10° SSW 06:10:38 66° WNW 06:15:00 10° N
ERS-2 4.4 06:11:49 10° NW 06:13:06 11° NW 06:14:22 10° WNW
CZ-4B R/B 2.8 06:10:25 10° N 06:14:00 55° WNW 06:17:42 10° SSW
SL-16 R/B 4.1 06:11:43 10° WSW 06:15:02 15° W 06:18:23 10° NW
Nadezhda 1 Rocket 4.3 06:09:53 10° SSW 06:16:01 52° WNW 06:22:17 10° N
USA 129 2.1 06:17:36 10° SSW 06:18:54 24° W 06:20:23 10° NW
CENTAUR R/B 2.9 06:13:15 10° WSW 06:19:38 65° NW 06:26:54 10° NE
ATLAS 5 CENTAUR R/B 2.8 06:16:22 10° W 06:21:10 41° NNW 06:26:26 10° NE
Cosmos 2366 rocket 4.4 06:16:31 10° N 06:22:46 72° ENE 06:28:54 10° SSE
Okean 2 Rocket 3.9 06:19:42 10° NNW 06:23:41 31° W 06:27:40 10° SSW
Cosmos 1782 3.7 06:19:49 10° S 06:23:46 54° E 06:27:45 10° NNE
PAYLOAD B 4.5 06:18:42 10° N 06:24:07 55° WNW 06:29:28 10° SW
Okean 1 Rocket 3.9 06:21:23 10° N 06:25:41 56° ENE 06:30:00 10° SSE
